This is the latest recevied weather packets stored in our database for station/object KK6LZB. If no packets are shown the sender has not sent any weather packets the latest 10 day(s).
| Time | Temp. | Humidity | Pressure | Rain* | Wind** | Luminosity | Snow |
|---|---|---|---|---|---|---|---|
| 1777604274 | 15.56° C | 94% | 1014.6 hPa | 0 mm | - | 0 W/m² | - |
| 1777603969 | 15.56° C | 94% | 1014.4 hPa | 0 mm | - | 0 W/m² | - |
| 1777603666 | 15.56° C | 94% | 1014.5 hPa | 0 mm | - | 0 W/m² | - |
| 1777603363 | 15.56° C | 93% | 1014.3 hPa | 0 mm | - | 1 W/m² | - |
| 1777603058 | 15.56° C | 93% | 1014.4 hPa | 0 mm | - | 1 W/m² | - |
| 1777602753 | 15.56° C | 92% | 1014.2 hPa | 0 mm | - | 3 W/m² | - |
| 1777602448 | 15.56° C | 92% | 1014.2 hPa | 0 mm | - | 4 W/m² | - |
| 1777602145 | 16.11° C | 91% | 1014.2 hPa | 0 mm | - | 7 W/m² | - |
| 1777601840 | 16.11° C | 90% | 1014.2 hPa | 0 mm | - | 10 W/m² | - |
| 1777601536 | 16.11° C | 89% | 1014 hPa | 0 mm | - | 13 W/m² | - |
| 1777601231 | 16.67° C | 89% | 1013.9 hPa | 0 mm | - | 17 W/m² | - |
| 1777600929 | 16.67° C | 88% | 1013.9 hPa | 0 mm | - | 20 W/m² | - |
| 1777600624 | 16.67° C | 88% | 1013.9 hPa | 0 mm | - | 24 W/m² | - |
| 1777600321 | 16.67° C | 88% | 1013.9 hPa | 0 mm | - | 28 W/m² | - |
| 1777600016 | 16.67° C | 87% | 1013.8 hPa | 0 mm | - | 31 W/m² | - |
| 1777599713 | 17.22° C | 86% | 1013.9 hPa | 0 mm | - | 35 W/m² | - |
| 1777599409 | 17.78° C | 84% | 1013.9 hPa | 0 mm | - | 38 W/m² | - |
| 1777599106 | 17.78° C | 84% | 1013.6 hPa | 0 mm | - | 42 W/m² | - |
| 1777598805 | 17.78° C | 84% | 1013.7 hPa | 0 mm | - | 45 W/m² | - |
| 1777598504 | 17.78° C | 82% | 1013.8 hPa | 0 mm | - | 67 W/m² | - |
| 1777598204 | 18.33° C | 80% | 1013.8 hPa | 0 mm | - | 74 W/m² | - |
| 1777597903 | 18.33° C | 81% | 1013.8 hPa | 0 mm | - | 90 W/m² | - |
| 1777597598 | 19.44° C | 78% | 1013.7 hPa | 0 mm | - | 100 W/m² | - |
| 1777597293 | 18.89° C | 78% | 1013.7 hPa | 0 mm | - | 112 W/m² | - |
| 1777596989 | 18.89° C | 79% | 1013.7 hPa | 0 mm | - | 124 W/m² | - |
* Rain latest hour (hover to see other rain measurements)
** Current wind speed in m/s (hover to see current wind gust speed)